• Join FlightAware (Why Join?)
  • Login
  • US Flag GB Flag 
01:58 EDT


 

Airport Tracker/Info


-or-


 

Live Flight TrackerFlight Track Log ✈ UAL4380 ✈ 22-Apr-2013 ✈ KMFE - KIAH

Flight Track Log - Related Links

Times and Time Zones

All times are in EDT time to prevent confusion due to time zone crossing. See the UAL4380 flight status page for this flight to view local times or setup timezone preferences in your user account.

Time Position Orientation Groundspeed Altitude Reporting Facility
EDT Latitude Longitude Course Direction KTS MPH feet Rate Location/Type
06:28 26.1547 -98.2225 24° Northeast 261 300 900  Level Houston Center
06:29 26.1561 -98.1942 87° East 194 223 1,900 2,040 Climbing Houston Center
06:30 26.2161 -98.1647 24° Northeast 231 266 4,000 2,280 Climbing Houston Center
06:31 26.3637 -98.1379 20° North  Level FlightAware Approximate
06:31 26.2858 -98.1356 21° North 260 299 6,500  Level Houston Center
06:32 26.4307 -98.1096 24° Northeast  Level FlightAware Approximate
06:32 26.3597 -98.1047 21° North 278 320 8,400  Level Houston Center
06:33 26.4961 -98.0770 24° Northeast  Level FlightAware Approximate
06:33 26.4350 -98.0725 21° North 288 331 10,600  Level Houston Center
06:34 26.5139 -98.0400 20° North 299 344 12,000 1,320 Climbing Houston Center
06:35 26.6008 -98.0033 21° North 329 379 13,300 1,320 Climbing Houston Center
06:36 26.6867 -97.9528 28° Northeast 345 397 14,700 1,200 Climbing Houston Center
06:37 26.7739 -97.8994 29° Northeast 355 409 15,800 1,080 Climbing Houston Center
06:38 26.8633 -97.8453 28° Northeast 364 419 16,900 960 Climbing Houston Center
06:39 26.9575 -97.7875 29° Northeast 380 437 17,800 960 Climbing Houston Center
06:40 27.0528 -97.7297 28° Northeast 388 447 18,900 960 Climbing Houston Center
06:41 27.1467 -97.6736 28° Northeast 399 459 19,800 900 Climbing Houston Center
06:42 27.2442 -97.6117 29° Northeast 400 460 20,800 1,080 Climbing Houston Center
06:43 27.3450 -97.5494 29° Northeast 412 474 22,000 1,200 Climbing Houston Center
06:44 27.4461 -97.4883 28° Northeast 414 476 23,300 1,200 Climbing Houston Center
06:45 27.5467 -97.4261 29° Northeast 413 475 24,500 1,200 Climbing Houston Center
06:46 27.6475 -97.3628 29° Northeast 415 478 25,700 900 Climbing Houston Center
06:47 27.7492 -97.3006 28° Northeast 415 478 26,400 540 Climbing Houston Center
06:48 27.8539 -97.2361 29° Northeast 425 489 26,800 300 Climbing Houston Center
06:49 27.9786 -97.1592 29° Northeast 438 504 27,000  Climbing Houston Center
06:50 28.0889 -97.0900 29° Northeast 452 520 26,900  Descending Houston Center
06:51 28.2014 -97.0200 29° Northeast 460 529 27,000  Climbing Houston Center
06:52 28.3153 -96.9492 29° Northeast 466 536 27,000  Level Houston Center
06:53 28.4286 -96.8769 29° Northeast 469 540 27,000  Level Houston Center
06:54 28.5431 -96.8064 28° Northeast 469 540 27,000  Level Houston Center
06:55 28.6572 -96.7342 29° Northeast 471 542 27,000 -240 Level Houston Center
06:56 28.7711 -96.6625 29° Northeast 470 541 26,600 -1,380 Descending Houston Center
06:57 28.8836 -96.5914 29° Northeast 465 535 24,300 -2,340 Descending Houston Center
06:58 28.9897 -96.5233 29° Northeast 444 511 21,900 -2,340 Descending Houston Center
06:59 29.0931 -96.4567 29° Northeast 432 497 19,600 -2,280 Descending Houston Center
07:00 29.1964 -96.3908 29° Northeast 429 494 17,400 -2,280 Descending Houston Center
07:01 29.2942 -96.3289 29° Northeast 410 472 15,100 -2,280 Descending Houston Center
07:02 29.3869 -96.2700 29° Northeast 389 448 12,900 -2,100 Descending Houston Center
07:03 29.4694 -96.2164 29° Northeast 348 400 10,900 -1,500 Descending Houston Center
07:04 29.5458 -96.1647 30° Northeast 329 379 9,900 -540 Descending Houston Center
07:05 29.6117 -96.0958 42° Northeast 322 371 9,900 -480 Level Houston Center
07:06 29.6708 -96.0300 44° Northeast 305 351 9,000 -1,020 Descending Houston Center
07:07 29.7239 -95.9658 46° Northeast 284 327 7,900 -1,200 Descending Houston Center
07:08 29.7667 -95.8956 55° Northeast 270 311 6,700 -1,200 Descending Houston Center
07:09 29.8100 -95.8283 53° Northeast 262 302 5,600 -1,200 Descending Houston Center
07:10 29.8500 -95.7647 54° Northeast 249 287 4,400 -900 Descending Houston Center
07:11 29.8986 -95.6872 54° Northeast 247 284 3,900 -720 Descending Houston Center
07:12 29.9408 -95.6197 54° Northeast 257 296 3,000 -540 Descending Houston Center
07:13 29.9797 -95.5575 54° Northeast 240 276 2,900 -300 Descending Houston Center
07:14 29.9933 -95.4972 75° East 205 236 2,500 -420 Descending Houston Center